This is the latest recevied weather packets stored in our database for station/object PP5CFL-13. If no packets are shown the sender has not sent any weather packets the latest 10 day(s).
| Time | Temp. | Humidity | Pressure | Rain* | Wind** | Luminosity | Snow |
|---|---|---|---|---|---|---|---|
| 1778079824 | 23.89° C | 99% | 1022.1 hPa | - | - | - | - |
| 1778079524 | 23.89° C | 10% | - | - | - | - | - |
| 1778079224 | 23.33° C | 10% | - | - | - | - | - |
| 1778078924 | 23.89° C | 98% | 1022.3 hPa | - | - | - | - |
| 1778078624 | 23.89° C | 98% | 1022.5 hPa | - | - | - | - |
| 1778078324 | 23.33° C | 98% | 1022.6 hPa | - | - | - | - |
| 1778078024 | 23.33° C | 97% | 1022.6 hPa | - | - | - | - |
| 1778077724 | 23.33° C | 98% | 1022.6 hPa | - | - | - | - |
| 1778077424 | 23.33° C | 97% | 1022.8 hPa | - | - | - | - |
| 1778077124 | 23.33° C | 98% | 1022.9 hPa | - | - | - | - |
| 1778076824 | 23.33° C | 97% | 1023 hPa | - | - | - | - |
| 1778076524 | 23.33° C | 96% | 1023 hPa | - | - | - | - |
| 1778076224 | 23.33° C | 96% | 1023.1 hPa | - | - | - | - |
| 1778075924 | 23.33° C | 95% | 1023.1 hPa | - | - | - | - |
| 1778075624 | 23.33° C | 96% | 1023.2 hPa | - | - | - | - |
| 1778075324 | 23.33° C | 94% | 1023.4 hPa | - | - | - | - |
| 1778075024 | 23.89° C | 92% | 1023.4 hPa | - | - | - | - |
| 1778074724 | 24.44° C | 89% | 1023.4 hPa | - | - | - | - |
| 1778074424 | 24.44° C | 89% | 1023.2 hPa | - | - | - | - |
| 1778074124 | 24.44° C | 91% | 1023.3 hPa | - | - | - | - |
| 1778073824 | 24.44° C | 92% | 1023.4 hPa | - | - | - | - |
| 1778073524 | 23.89° C | 93% | 1023.4 hPa | - | - | - | - |
| 1778073224 | 23.33° C | 99% | 1023.4 hPa | - | - | - | - |
| 1778072924 | 22.78° C | 10% | - | - | - | - | - |
| 1778072624 | 22.78° C | 99% | 1023.5 hPa | - | - | - | - |
* Rain since midnight (hover to see other rain measurements)
** Current wind speed in m/s (hover to see current wind gust speed)